星链-5285 (STARLINK-5285 )

导读

STARLINK-5285是美国SpaceX公司于2023年1月19日发射的星链低轨互联网卫星,属于星链星座组网的组成部分,运行于近地轨道。星链项目旨在构建全球卫星互联网星座,为全球偏远区域、海洋及特殊场景提供宽带互联网接入服务,该卫星搭载激光通信终端,可实现星间高速互联,支撑全球无缝覆盖的网络服务,是SpaceX推进星链大规模部署的组成单元,助力实现全球天地一体化网络覆盖。

Basic Information
目录编号:
55296
目录名称:
STARLINK-5285
国际标识:
2023-010AD
轨道中心:
EARTH
卫星名称:
星链-5285
卫星全名:
星链-5285 (STARLINK-5285 )
卫星状态:
在轨 (已飞行1332 天)
发射日期:
2023-01-19 UTC
国别 :
美国 (US)
星等 :
--
This satellite is enrolled in the Space Conjunction Data Service (SCDS) and the current flight risk assessment level is: No High Risk
Orbit Information
数据来源 国际轨道数据 AOE轨道数据
星历时间 2026-09-12T11:51:49+0800
10小时前
查看轨道信息
2026-09-10T23:00:00+0800
1天前
查看轨道信息
半长轴 6950.197km 6950.177km
偏心率 0.0003853 0.000391
轨道倾角 69.998° 69.997°
近地点辐角 269.169° 271.995°
升交点赤经 274.177° 278.048°
平近点角 90.903° 85.366°
近地点 569.382km 569.322km
远地点 574.738km 574.758km
周期 96.107分钟 96.107分钟
每日圈数 14.983289 14.983354
Detailed Information
固有亮度:
5
最大亮度:
2.5
卫星平台:
Starlink v1.5
覆盖范围:
全球
运营商:
太空探索技术公司
运营商所在国:
美国
制造商(研发单位):
太空探索技术公司
制造商所在国:
美国
使用方式:
暂无
Satellite Introduction
星链(Starlink)计划是由太空探索技术公司(SpaceX)提出的一个巨型低轨卫星互联网星座项目,计划在2019年至2024年间在太空搭建由约1.2万颗卫星组成的“星链”网络,其中1584颗将部署在地球上空550千米处的近地轨道,并从2020年开始工作。该卫星仍在工作。
2D Orbit Map
3D Orbit Map
Orbit Altitude Analysis Chart
Orbit Inclination Analysis Chart
Orbit Comprehensive Analysis Chart
View Comprehensive Chart
Conjunction Data List
Event ID Objects TCA Miss Dist (km) Collision Risk Probability Collision Risk Index (CRI) Action
CDM_260912-230205-529606-173825
OBJECT D (61738)
2026-09-12T
23:02:40+0000
0.807 km
远距离
5.602245E-5 中风险 0.7
CDM_260913-193902-354605-529625
2026-09-13T
19:39:42+0000
1.741 km
极远距离
3.761481E-6 低风险 0.47
CDM_260912-172505-529606-178925
2026-09-12T
17:25:35+0000
2.385 km
极远距离
1.938219E-6 低风险 0.41
CDM_260913-192402-765305-529623
PSLV DEB (27653)
2026-09-13T
19:24:29+0000
2.420 km
极远距离
1.215878E-6 低风险 0.37
Miss Distance Evolution Trend with All Objects
Collision Probability Evolution Trend with All Objects